#timestamp,LO_Frequency,Hit 
1505235615.7,286046998.4,N
1505235635.6,286046999.2,N
1505235655.4,286046998.7,N
1505235675.2,286047000.7,N
1505235695.1,286047000.7,N
1505235696.0,286047000.7,N
1505235715.8,286046998.3,N
1505235735.6,286047000.8,N
1505235755.4,286047000.2,N
1505235775.3,286046999.4,N
1505235795.1,286046999.3,N
1505235815.8,286047000.3,N
1505235835.7,286047000.9,N
1505235855.5,286046999.9,N
1505235875.3,286047000.0,N
1505235895.2,286047002.4,N
1505235915.9,286047000.2,N
1505235935.7,286047001.8,N
1505235955.6,286047002.7,N
1505235975.4,286047000.3,N
1505235995.2,286047000.4,N
1505236015.1,286046998.4,N
1505236016.0,286046998.4,N
1505236035.8,286046998.2,N
1505236055.6,286047001.1,N
1505236075.4,286047001.0,N
1505236095.3,286047000.1,N
1505236115.1,286047002.3,N
1505236135.8,286047000.3,N
1505236155.7,286047000.0,N
1505236175.5,286046998.1,N
1505236195.3,286046999.6,N
1505236215.2,286046999.6,N
1505236235.9,286046998.2,N
1505236255.7,286047000.6,N
1505236275.6,286047000.1,N
1505236295.4,286047000.4,N
1505236315.2,286047002.4,N
1505236335.1,286047001.0,N
1505236336.0,286047001.0,N
1505236355.8,286046998.6,N
1505236375.6,286047001.2,N
1505236395.5,286047000.1,N
1505236415.3,286047004.3,P
1505236435.1,286046999.7,N
1505236455.9,286047002.5,N
1505236475.7,286047000.6,N
1505236495.5,286047001.7,N
1505236515.4,286046999.8,N
1505236535.2,286047000.4,N
1505236555.0,286046998.4,N
1505236555.9,286046998.4,N
1505236575.7,286047000.8,N
1505236595.6,286047002.2,N
1505236615.4,286047001.3,N
1505236635.2,286047001.7,N
1505236655.1,286047001.6,N
1505236656.0,286047001.6,N
1505236675.8,286047001.5,N
1505236695.6,286047000.6,N
1505236715.5,286047000.3,N
1505236735.3,286047000.5,N
1505236755.1,286047001.6,N
1505236775.9,286047002.5,N
1505236795.7,286047001.5,N
1505236815.5,286047001.8,N
1505236835.4,286047000.4,N
1505236855.2,286047002.8,N
1505236875.0,286047002.1,N
1505236875.9,286047002.1,N
1505236895.8,286047002.1,N
1505236915.6,286047002.5,N
1505236935.4,286047002.4,N
1505236955.2,286047001.6,N
1505236975.1,286047004.4,P
1505236976.0,286047004.4,N
1505236995.8,286047002.7,N
1505237015.7,286047000.9,N
1505237035.5,286046998.3,N
1505237055.3,286047000.9,N
1505237075.1,286046999.8,N
1505237095.9,286047001.0,N
1505237115.7,286047001.0,N
1505237135.5,286047000.1,N
1505237155.4,286047001.8,N
1505237175.2,286047000.4,N
1505237195.0,286047001.1,N
1505237195.9,286047001.1,N
1505237215.8,286047000.6,N
1505237235.6,286047002.3,N
1505237255.4,286047004.0,N
1505237275.3,286047003.2,N
1505237295.1,286047003.8,N
1505237296.0,286047003.8,N
1505237315.8,286047003.8,N
1505237335.7,286047005.9,P
1505237355.5,286047001.9,N
1505237375.3,286047001.5,N
1505237395.2,286047003.7,N
1505237415.9,286047002.0,N
1505237435.7,286047004.2,N
1505237455.6,286047003.6,N
1505237475.4,286047003.0,N
1505237495.2,286047003.2,N
1505237515.1,286047005.2,P
1505237516.0,286047005.2,P
1505237535.8,286047002.2,N
1505237555.6,286047003.9,N
1505237575.5,286047001.6,N
1505237595.3,286047002.7,N
1505237615.1,286047002.0,N
1505237635.9,286047004.0,P
1505237655.7,286047000.8,N
1505237675.5,286047000.4,N
1505237695.4,286047000.3,N
1505237715.2,286046998.6,N
1505237735.0,286046999.2,N
1505237735.9,286046999.2,N
1505237755.7,286046997.1,N
1505237775.6,286046998.3,N
1505237795.4,286046999.2,N
1505237815.2,286046997.4,N
1505237835.1,286046997.3,N
1505237836.0,286046997.3,N
1505237855.8,286047001.0,N
1505237875.6,286046999.7,N
1505237895.5,286047004.1,N
1505237915.3,286047000.0,N
1505237935.1,286047001.0,N
1505237955.9,286047002.0,N
1505237975.7,286047001.8,N
1505237995.5,286047000.8,N
1505238015.4,286047000.0,N
1505238035.2,286047003.9,N
1505238055.0,286047001.5,N
1505238055.9,286047001.5,N
1505238075.7,286047004.1,N
1505238095.6,286047004.0,N
1505238115.4,286047001.3,N
1505238135.2,286047005.6,N
1505238155.1,286047002.9,N
1505238156.0,286047002.9,N
1505238175.8,286047003.4,N
1505238195.6,286047003.0,N
1505238215.5,286047005.0,N
1505238235.3,286047007.6,P
1505238255.1,286047005.4,N
1505238275.9,286047005.6,N
1505238295.7,286047004.2,N
1505238315.5,286047002.7,N
1505238335.4,286047003.9,N
1505238355.2,286047006.0,P
1505238375.0,286046999.2,N
1505238375.9,286046999.2,N
1505238395.8,286046996.9,N
1505238415.6,286046997.7,N
1505238435.4,286046999.1,N
1505238455.3,286046998.1,N
1505238475.1,286046998.5,N
1505238476.0,286046998.5,N
1505238495.8,286046999.6,N
1505238515.7,286046998.4,N
1505238535.5,286046998.4,N
1505238555.3,286046998.1,N
1505238575.2,286046995.4,N
1505238595.9,286046994.3,N
1505238615.7,286046995.0,N
1505238635.5,286046999.5,N
1505238655.4,286047000.8,N
1505238675.2,286047003.3,N
1505238695.0,286047005.0,N
1505238695.9,286047005.0,N
1505238715.8,286047006.7,N
1505238735.6,286047009.0,N
1505238755.4,286047004.7,N
1505238775.3,286047006.7,N
1505238795.1,286047006.7,N
1505238815.8,286047009.8,N
1505238835.7,286047013.3,P
1505238855.5,286047009.8,N
1505238875.3,286047011.1,N
1505238895.2,286047014.0,P
1505238915.0,286047005.4,N
1505238915.9,286047005.4,N
1505238935.7,286047004.5,N
1505238955.6,286047006.6,N
1505238975.4,286047005.7,N
1505238995.2,286047005.5,N
1505239015.1,286047003.8,N
1505239016.0,286047003.8,N
1505239035.8,286047003.7,N
1505239055.6,286047003.5,N
1505239075.5,286047003.5,N
1505239095.3,286047005.9,N
1505239115.1,286047003.0,N
1505239135.9,286047002.9,N
1505239155.7,286047004.7,N
1505239175.5,286047004.6,N
1505239195.3,286047005.2,N
